When you browse on this site, cookies collect data to enhance your experience and personalize the content and advertising you see.
Visit our Privacy Policy to learn more. By continuing to use the site, you agree to this use of cookies and data.
  • In Hungary
  • List of Countries
  • For 7 days
  • Water Temperature
  • Satellite Maps
  • Weather Map
  • News
  • Weather Widgets
  • user-avatar
    Login

    Hourly Weather Dapaon

    Today, 21 April, Sunday

    Time Temperature Precipitation Wind Pressure Humidity
    00:00 +37°C° 0 mm 3 mps 729 mmHg 35%
    01:00 +37°C° 0 mm 3 mps 729 mmHg 36%
    02:00 +36°C° 0 mm 3 mps 729 mmHg 37%
    03:00 +36°C° 0 mm 4 mps 729 mmHg 38%
    04:00 +35°C° 0 mm 4 mps 729 mmHg 41%
    05:00 +35°C° 0 mm 5 mps 730 mmHg 45%
    06:00 +34°C° 0 mm 5 mps 730 mmHg 49%
    07:00 +35°C° 0 mm 5 mps 730 mmHg 47%
    08:00 +36°C° 0 mm 5 mps 730 mmHg 45%
    09:00 +36°C° 0 mm 5 mps 731 mmHg 42%
    10:00 +38°C° 0 mm 4 mps 730 mmHg 39%
    11:00 +39°C° 0 mm 3 mps 730 mmHg 35%
    12:00 +40°C° 0 mm 2 mps 730 mmHg 31%
    13:00 +41°C° 0 mm 2 mps 729 mmHg 28%
    14:00 +42°C° 0 mm 1 mps 728 mmHg 24%
    15:00 +40°C° 0 mm 0 mps 728 mmHg 21%
    16:00 +40°C° 0 mm 0 mps 728 mmHg 21%
    17:00 +42°C° 0 mm 1 mps 728 mmHg 21%
    18:00 +42°C° 0 mm 1 mps 728 mmHg 21%
    19:00 +42°C° 0.1 mm 1 mps 728 mmHg 22%
    20:00 +42°C° 0.1 mm 1 mps 728 mmHg 22%
    21:00 +41°C° 0.1 mm 2 mps 729 mmHg 23%
    22:00 +41°C° 0.1 mm 2 mps 729 mmHg 24%
    23:00 +40°C° 0.1 mm 2 mps 728 mmHg 26%

    Tomorrow, 22 April, Monday

    Time Temperature Precipitation Wind Pressure Humidity
    00:00 +39°C° 0.1 mm 2 mps 728 mmHg 27%
    01:00 +39°C° 0.1 mm 3 mps 728 mmHg 29%
    02:00 +38°C° 0.1 mm 4 mps 728 mmHg 31%
    03:00 +37°C° 0.1 mm 4 mps 728 mmHg 34%
    04:00 +36°C° 0.5 mm 4 mps 728 mmHg 38%
    05:00 +36°C° 0.5 mm 4 mps 728 mmHg 41%
    06:00 +35°C° 0.5 mm 4 mps 729 mmHg 45%
    07:00 +36°C° 0 mm 3 mps 729 mmHg 43%
    08:00 +36°C° 0 mm 3 mps 730 mmHg 41%
    09:00 +37°C° 0 mm 2 mps 731 mmHg 39%
    10:00 +38°C° 0 mm 3 mps 730 mmHg 37%
    11:00 +39°C° 0 mm 3 mps 730 mmHg 35%
    12:00 +39°C° 0 mm 3 mps 730 mmHg 34%
    13:00 +40°C° 0 mm 3 mps 729 mmHg 32%
    14:00 +40°C° 0 mm 3 mps 728 mmHg 31%
    15:00 +42°C° 0 mm 3 mps 727 mmHg 30%
    16:00 +42°C° 0 mm 3 mps 727 mmHg 30%
    17:00 +40°C° 0 mm 3 mps 727 mmHg 30%
    18:00 +40°C° 0 mm 3 mps 727 mmHg 30%
    19:00 +40°C° 0.2 mm 3 mps 727 mmHg 30%
    20:00 +39°C° 0.2 mm 3 mps 728 mmHg 31%
    21:00 +38°C° 0.2 mm 2 mps 728 mmHg 32%
    22:00 +38°C° 0 mm 2 mps 728 mmHg 33%
    23:00 +36°C° 0 mm 1 mps 728 mmHg 34%

    Day after tomorrow, 23 April, Tuesday

    Time Temperature Precipitation Wind Pressure Humidity
    00:00 +34°C° 0 mm 0 mps 728 mmHg 35%
    01:00 +36°C° 0 mm 2 mps 728 mmHg 38%
    02:00 +36°C° 0 mm 3 mps 728 mmHg 41%
    03:00 +35°C° 0 mm 5 mps 728 mmHg 44%
    04:00 +34°C° 1.2 mm 5 mps 728 mmHg 51%
    05:00 +33°C° 1.2 mm 5 mps 729 mmHg 57%
    06:00 +32°C° 1.2 mm 5 mps 729 mmHg 64%
    07:00 +33°C° 0 mm 5 mps 729 mmHg 59%
    08:00 +35°C° 0 mm 5 mps 730 mmHg 54%
    09:00 +36°C° 0 mm 5 mps 730 mmHg 49%
    10:00 +39°C° 0 mm 5 mps 730 mmHg 44%
    11:00 +40°C° 0 mm 4 mps 730 mmHg 38%
    12:00 +42°C° 0 mm 4 mps 730 mmHg 32%
    13:00 +42°C° 0 mm 3 mps 729 mmHg 29%
    14:00 +42°C° 0 mm 2 mps 728 mmHg 26%
    15:00 +43°C° 0 mm 2 mps 727 mmHg 24%
    16:00 +42°C° 0 mm 2 mps 727 mmHg 24%
    17:00 +42°C° 0 mm 2 mps 727 mmHg 25%
    18:00 +42°C° 0 mm 1 mps 727 mmHg 25%
    19:00 +41°C° 0.3 mm 1 mps 728 mmHg 26%
    20:00 +41°C° 0.3 mm 1 mps 728 mmHg 27%
    21:00 +40°C° 0.3 mm 1 mps 729 mmHg 29%
    22:00 +40°C° 0.2 mm 1 mps 729 mmHg 30%
    23:00 +39°C° 0.2 mm 1 mps 729 mmHg 31%

    24 April, Wednesday

    Time Temperature Precipitation Wind Pressure Humidity
    00:00 +39°C° 0.2 mm 2 mps 729 mmHg 32%
    01:00 +38°C° 0.1 mm 2 mps 728 mmHg 35%
    02:00 +37°C° 0.1 mm 2 mps 728 mmHg 37%
    03:00 +37°C° 0.1 mm 3 mps 728 mmHg 39%
    04:00 +36°C° 0 mm 3 mps 728 mmHg 42%
    05:00 +36°C° 0 mm 4 mps 729 mmHg 45%
    06:00 +35°C° 0 mm 5 mps 729 mmHg 48%
    07:00 +36°C° 0 mm 5 mps 730 mmHg 47%
    08:00 +36°C° 0 mm 5 mps 730 mmHg 47%
    09:00 +37°C° 0 mm 5 mps 731 mmHg 47%
    10:00 +38°C° 0 mm 4 mps 731 mmHg 42%
    11:00 +40°C° 0 mm 3 mps 730 mmHg 37%
    12:00 +41°C° 0 mm 2 mps 730 mmHg 32%
    13:00 +41°C° 0 mm 1 mps 729 mmHg 31%
    14:00 +42°C° 0 mm 1 mps 728 mmHg 29%
    15:00 +39°C° 0 mm 0 mps 728 mmHg 28%
    16:00 +42°C° 0 mm 1 mps 728 mmHg 28%
    17:00 +42°C° 0 mm 1 mps 728 mmHg 28%
    18:00 +42°C° 0 mm 1 mps 728 mmHg 28%
    19:00 +40°C° 0.6 mm 4 mps 729 mmHg 39%
    20:00 +36°C° 0.6 mm 7 mps 729 mmHg 50%
    21:00 +34°C° 0.6 mm 10 mps 730 mmHg 61%
    22:00 +33°C° 14.3 mm 8 mps 730 mmHg 65%
    23:00 +32°C° 14.3 mm 7 mps 729 mmHg 69%

    25 April, Thursday

    Time Temperature Precipitation Wind Pressure Humidity
    00:00 +30°C° 14.3 mm 5 mps 729 mmHg 73%
    01:00 +30°C° 3.8 mm 5 mps 729 mmHg 65%
    02:00 +32°C° 3.8 mm 5 mps 729 mmHg 57%
    03:00 +32°C° 3.8 mm 5 mps 729 mmHg 50%
    04:00 +32°C° 0.5 mm 5 mps 730 mmHg 53%
    05:00 +30°C° 0.5 mm 5 mps 731 mmHg 56%
    06:00 +30°C° 0.5 mm 5 mps 731 mmHg 59%
    07:00 +30°C° 0.2 mm 4 mps 732 mmHg 61%
    08:00 +30°C° 0.2 mm 4 mps 732 mmHg 64%
    09:00 +30°C° 0.2 mm 4 mps 732 mmHg 66%
    10:00 +33°C° 0 mm 3 mps 732 mmHg 61%
    11:00 +34°C° 0 mm 3 mps 731 mmHg 55%
    12:00 +35°C° 0 mm 2 mps 731 mmHg 49%
    13:00 +36°C° 0 mm 2 mps 730 mmHg 46%
    14:00 +35°C° 0 mm 1 mps 730 mmHg 43%
    15:00 +36°C° 0 mm 1 mps 729 mmHg 40%
    16:00 +36°C° 0 mm 1 mps 729 mmHg 41%
    17:00 +34°C° 0 mm 0 mps 729 mmHg 42%
    18:00 +34°C° 0 mm 0 mps 730 mmHg 43%
    19:00 +35°C° 0 mm 1 mps 730 mmHg 44%
    20:00 +35°C° 0 mm 1 mps 731 mmHg 46%
    21:00 +35°C° 0 mm 2 mps 731 mmHg 47%
    22:00 +35°C° 0 mm 2 mps 731 mmHg 50%
    23:00 +35°C° 0 mm 2 mps 730 mmHg 52%

    26 April, Friday

    Time Temperature Precipitation Wind Pressure Humidity
    00:00 +34°C° 0 mm 3 mps 730 mmHg 54%
    01:00 +34°C° 0 mm 3 mps 730 mmHg 56%
    02:00 +33°C° 0 mm 3 mps 729 mmHg 58%
    03:00 +33°C° 0 mm 3 mps 729 mmHg 60%
    04:00 +33°C° 0 mm 3 mps 729 mmHg 62%
    05:00 +31°C° 0 mm 3 mps 730 mmHg 63%
    06:00 +31°C° 0 mm 3 mps 730 mmHg 64%
    07:00 +33°C° 0 mm 3 mps 730 mmHg 60%
    08:00 +34°C° 0 mm 4 mps 731 mmHg 55%
    09:00 +36°C° 0 mm 4 mps 731 mmHg 51%
    10:00 +37°C° 0 mm 4 mps 731 mmHg 47%
    11:00 +38°C° 0 mm 3 mps 730 mmHg 43%
    12:00 +39°C° 0 mm 3 mps 730 mmHg 39%
    13:00 +40°C° 0 mm 2 mps 729 mmHg 36%
    14:00 +41°C° 0 mm 1 mps 728 mmHg 33%
    15:00 +39°C° 0 mm 0 mps 728 mmHg 30%
    16:00 +41°C° 0 mm 1 mps 728 mmHg 30%
    17:00 +41°C° 0 mm 1 mps 728 mmHg 30%
    18:00 +41°C° 0 mm 1 mps 728 mmHg 29%
    19:00 +40°C° 0 mm 1 mps 728 mmHg 31%
    20:00 +40°C° 0 mm 2 mps 728 mmHg 33%
    21:00 +39°C° 0 mm 2 mps 729 mmHg 35%
    22:00 +38°C° 0 mm 3 mps 729 mmHg 38%
    23:00 +38°C° 0 mm 4 mps 728 mmHg 40%
    Show more